Tracking 30995 objects as of 7-Jul-2025
HD Live streaming from Space Station
objects crossing your sky now

PEGASUS DEB

Track PEGASUS DEB now!
10-day predictions


NORAD ID: 39315
Int'l Code: 1994-029AFA
Perigee: 598.2 km
Apogee: 1,170.5 km
Inclination: 81.5 °
Period: 102.5 minutes
Semi major axis: 7255 km
RCS: 0.0038 m2 (small)
Launch date: May 19, 1994
Source: United States (US)
Launch site: AIR FORCE WESTERN TEST RANGE (AFWTR)

Note: This is SATELLITE DEBRIS
Your satellite tracking list
OPS 6157
Track 1 satellite(s)




NASA's NSSDC Master Catalog

Two Line Element Set (TLE):
1 39315U 94029AFA 25187.47340180  .00001410  00000-0  43276-3 0  9996
2 39315  81.4909 251.3476 0394342 285.3057  70.4856 14.04801108613846
Source of the keplerian elements: AFSPC